This is the latest recevied weather packets stored in our database for station/object OE9MNR-10. If no packets are shown the sender has not sent any weather packets the latest 10 day(s).
| Time | Temp. | Humidity | Pressure | Rain* | Wind** | Luminosity | Snow |
|---|---|---|---|---|---|---|---|
| 1787821729 | 23.89° C | 100% | 966.9 hPa | - | - | - | - |
| 1787821429 | 23.89° C | 100% | 966.9 hPa | - | - | - | - |
| 1787821129 | 23.33° C | 100% | 966.9 hPa | - | - | - | - |
| 1787820829 | 23.33° C | 100% | 966.9 hPa | - | - | - | - |
| 1787820529 | 23.33° C | 100% | 967 hPa | - | - | - | - |
| 1787820229 | 23.89° C | 100% | 967.1 hPa | - | - | - | - |
| 1787819929 | 23.33° C | 100% | 967 hPa | - | - | - | - |
| 1787819629 | 23.33° C | 100% | 966.8 hPa | - | - | - | - |
| 1787819029 | 22.78° C | 100% | 966.8 hPa | - | - | - | - |
| 1787818729 | 22.78° C | 100% | 966.8 hPa | - | - | - | - |
| 1787818429 | 22.78° C | 100% | 966.9 hPa | - | - | - | - |
| 1787818129 | 22.78° C | 100% | 966.8 hPa | - | - | - | - |
| 1787817829 | 22.22° C | 100% | 967 hPa | - | - | - | - |
| 1787817529 | 22.22° C | 100% | 967.1 hPa | - | - | - | - |
| 1787817229 | 22.22° C | 100% | 967 hPa | - | - | - | - |
| 1787816929 | 22.22° C | 100% | 966.8 hPa | - | - | - | - |
| 1787816629 | 22.22° C | 100% | 966.7 hPa | - | - | - | - |
| 1787816329 | 21.67° C | 100% | 966.6 hPa | - | - | - | - |
| 1787815729 | 20.56° C | 100% | 966.5 hPa | - | - | - | - |
| 1787815429 | 20° C | 100% | 966.5 hPa | - | - | - | - |
| 1787815129 | 20° C | 100% | 966.6 hPa | - | - | - | - |
| 1787814829 | 19.44° C | 100% | 966.5 hPa | - | - | - | - |
| 1787814529 | 19.44° C | 100% | 966.4 hPa | - | - | - | - |
| 1787814229 | 19.44° C | 100% | 966.2 hPa | - | - | - | - |
| 1787813929 | 19.44° C | 100% | 966.2 hPa | - | - | - | - |
* Rain since midnight (hover to see other rain measurements)
** Current wind speed in m/s (hover to see current wind gust speed)